OK2ZA-6 Weather Reports


time (UTC)temp
C
wind
direction
speed
KPH
gust
KPH
rain 1hr
cm
rain 24hr
cm
rain mn
cm
humidity
%
barometer
mb
20260505095004 18 131 11.3 22.5 0.00 0.00 0.00 57 1008.6
20260505094004 17 130 12.9 19.3 0.00 0.00 0.00 57 1008.7
20260505093004 17 128 12.9 22.5 0.00 0.00 0.00 58 1008.7
20260505092004 17 139 12.9 20.9 0.00 0.00 0.00 56 1008.8
20260505091004 17 107 12.9 24.1 0.00 0.00 0.00 56 1008.8
20260505090004 16 108 11.3 22.5 0.00 0.00 0.00 57 1008.9
20260505085004 16 127 11.3 20.9 0.00 0.00 0.00 56 1009.1
20260505084004 16 125 9.7 19.3 0.00 0.00 0.00 58 1009.1
20260505083004 15 101 11.3 17.7 0.00 0.00 0.00 60 1009.1
20260505082003 15 92 9.7 17.7 0.00 0.00 0.00 57 1009.1
20260505081003 15 102 9.7 17.7 0.00 0.00 0.00 57 1009.1
20260505080004 15 97 9.7 17.7 0.00 0.00 0.00 57 1009.1
20260505075004 15 97 8.0 17.7 0.00 0.00 0.00 57 1009.1
20260505074004 15 124 11.3 20.9 0.00 0.00 0.00 57 1009.1
20260505073004 15 99 11.3 17.7 0.00 0.00 0.00 58 1009.2
20260505072004 14 90 11.3 17.7 0.00 0.00 0.00 58 1009.3
20260505071003 14 126 9.7 17.7 0.00 0.00 0.00 59 1009.2
20260505070004 14 123 9.7 17.7 0.00 0.00 0.00 59 1009.3
20260505065004 13 108 11.3 17.7 0.00 0.00 0.00 58 1009.3
20260505064003 13 121 9.7 16.1 0.00 0.00 0.00 58 1009.4
20260505063004 13 123 9.7 17.7 0.00 0.00 0.00 57 1009.5
20260505062004 13 113 9.7 19.3 0.00 0.00 0.00 57 1009.5
20260505061003 13 121 8.0 16.1 0.00 0.00 0.00 56 1009.5
20260505060004 13 109 9.7 19.3 0.00 0.00 0.00 55 1009.4
20260505055004 13 94 8.0 16.1 0.00 0.00 0.00 55 1009.2
20260505054004 13 90 9.7 17.7 0.00 0.00 0.00 54 1009.1
20260505053004 13 95 9.7 20.9 0.00 0.00 0.00 55 1009.1
20260505052004 13 94 8.0 16.1 0.00 0.00 0.00 54 1009.2
20260505051003 13 89 8.0 16.1 0.00 0.00 0.00 55 1009.1
20260505041004 11 62 8.0 17.7 0.00 0.00 0.00 58 1009.1
20260505040004 11 65 8.0 14.5 0.00 0.00 0.00 58 1009.2
20260505035003 12 63 6.4 12.9 0.00 0.00 0.00 58 1009.3
20260505034003 12 66 4.8 9.7 0.00 0.00 0.00 57 1009.3
20260505033003 12 61 4.8 12.9 0.00 0.00 0.00 57 1009.3
20260505032003 12 69 6.4 14.5 0.00 0.00 0.00 57 1009.3
20260505031003 12 74 6.4 12.9 0.00 0.00 0.00 57 1009.3
20260505030004 12 71 4.8 11.3 0.00 0.00 0.00 57 1009.5
20260505025004 12 77 4.8 11.3 0.00 0.00 0.00 57 1009.6
20260505024004 12 71 4.8 11.3 0.00 0.00 0.00 56 1009.7
20260505023003 13 68 3.2 11.3 0.00 0.00 0.00 55 1009.9
20260505022003 13 77 3.2 12.9 0.00 0.00 0.00 54 1009.9
20260505021004 13 79 8.0 16.1 0.00 0.00 0.00 54 1009.9
20260505020004 13 82 6.4 14.5 0.00 0.00 0.00 53 1010.0
20260505015003 14 89 8.0 16.1 0.00 0.00 0.00 53 1010.0
20260505014004 14 85 9.7 20.9 0.00 0.00 0.00 53 1009.9
20260505013003 14 83 11.3 17.7 0.00 0.00 0.00 53 1009.9
20260505012003 14 83 11.3 19.3 0.00 0.00 0.00 53 1009.9
20260505011004 14 85 9.7 17.7 0.00 0.00 0.00 53 1010.0
20260505010004 14 81 8.0 16.1 0.00 0.00 0.00 52 1010.1
20260505005004 14 85 8.0 16.1 0.00 0.00 0.00 52 1010.2
20260505004003 15 83 9.7 20.9 0.00 0.00 0.00 52 1010.2
20260505003004 14 84 11.3 19.3 0.00 0.00 0.00 52 1010.3
20260505002004 14 83 9.7 14.5 0.00 0.00 0.00 52 1010.4
20260505001004 14 85 8.0 14.5 0.00 0.00 0.00 51 1010.5
20260505000004 14 81 9.7 14.5 0.00 0.00 0.00 52 1010.7
20260504235004 15 78 8.0 14.5 0.00 0.00 0.00 52 1010.7
20260504234004 15 79 6.4 12.9 0.00 0.00 0.00 51 1010.9
20260504233003 15 89 8.0 14.5 0.00 0.00 0.00 50 1011.0
20260504232004 15 82 8.0 16.1 0.00 0.00 0.00 50 1011.0
20260504231004 15 81 9.7 16.1 0.00 0.00 0.00 49 1011.1
20260504230004 16 88 9.7 16.1 0.00 0.00 0.00 49 1011.2
20260504225004 16 87 11.3 20.9 0.00 0.00 0.00 49 1011.2
20260504224004 16 82 12.9 19.3 0.00 0.00 0.00 49 1011.3
20260504223004 16 81 11.3 17.7 0.00 0.00 0.00 49 1011.4
20260504222004 16 82 11.3 17.7 0.00 0.00 0.00 49 1011.6
20260504221003 16 81 12.9 17.7 0.00 0.00 0.00 48 1011.6
20260504220005 16 81 12.9 19.3 0.00 0.00 0.00 48 1011.6
20260504215004 16 83 12.9 20.9 0.00 0.00 0.00 48 1011.7
20260504214004 16 83 12.9 19.3 0.00 0.00 0.00 48 1011.7
20260504213004 16 84 12.9 19.3 0.00 0.00 0.00 48 1011.7
20260504212004 16 84 12.9 20.9 0.00 0.00 0.00 47 1011.9
20260504211004 16 83 11.3 17.7 0.00 0.00 0.00 47 1012.0
20260504210004 17 82 12.9 19.3 0.00 0.00 0.00 47 1012.0
20260504205004 17 87 11.3 19.3 0.00 0.00 0.00 47 1012.0
20260504204004 17 88 9.7 17.7 0.00 0.00 0.00 47 1012.0
20260504203004 17 86 11.3 17.7 0.00 0.00 0.00 47 1012.1
20260504202004 17 80 11.3 17.7 0.00 0.00 0.00 47 1012.2
20260504201004 18 80 9.7 16.1 0.00 0.00 0.00 46 1012.3
20260504200004 18 89 8.0 16.1 0.00 0.00 0.00 44 1012.3
20260504195004 18 92 9.7 17.7 0.00 0.00 0.00 44 1012.3
20260504194004 18 94 9.7 19.3 0.00 0.00 0.00 44 1012.3
20260504193004 18 100 9.7 17.7 0.00 0.00 0.00 44 1012.3
20260504192004 18 106 8.0 17.7 0.00 0.00 0.00 44 1012.4
20260504191004 18 107 11.3 19.3 0.00 0.00 0.00 44 1012.3
20260504190004 18 109 9.7 17.7 0.00 0.00 0.00 45 1012.3
20260504185003 19 107 8.0 16.1 0.00 0.00 0.00 45 1012.2
20260504184004 19 104 9.7 16.1 0.00 0.00 0.00 45 1012.2
20260504183004 19 108 8.0 14.5 0.00 0.00 0.00 45 1012.2
20260504182004 20 103 6.4 14.5 0.00 0.00 0.00 45 1012.2
20260504181003 20 108 4.8 11.3 0.00 0.00 0.00 44 1012.2
20260504180004 20 106 8.0 14.5 0.00 0.00 0.00 44 1012.2
20260504175003 20 110 8.0 14.5 0.00 0.00 0.00 43 1012.2
20260504174003 21 110 8.0 14.5 0.00 0.00 0.00 43 1012.0
20260504173004 21 115 8.0 17.7 0.00 0.00 0.00 42 1012.1
20260504172004 21 130 9.7 17.7 0.00 0.00 0.00 39 1012.1
20260504171003 22 145 9.7 14.5 0.00 0.00 0.00 36 1012.1
20260504151004 23 161 11.3 22.5 0.00 0.00 0.00 40 1012.3
20260504141004 22 147 11.3 22.5 0.00 0.00 0.00 47 1013.0